Location: Ahstedt
(52.2048°N, 10.1060°E)
Time: 23:56:17
(UTC+00:00)

USA 307 - Pass Details

Date: 18 January 2026
Orbit: 495 x 502 km, 54.0° (Epoch: 10 March)

Event Time Altitude Azimuth Distance (km) Brightness Sun altitude
Exits shadow 04:32:58 46° 137° (SE) 683 3.5 -24.7°
Drops below altitude 10° 04:35:55 10° 121° (ESE) 1,697 6.1 -24.3°
Sets 04:38:05 0° 119° (ESE) 2,532 7.3 -24.0°
